Погода в Темире

Хотите узнать прогноз погоды в Темире? Тогда Вам сюда: Погода в Темире

Поиск расширенной информации на нашем сайте:

Полезная информация:

Новости сайта



02.01.2020
Опубликован Долгосрочный прогноз погоды по городам России и ближнего зарубежья на январь 2020 года.
Карты: Прогноз на январь и февраль 2020 года, Сравнение прогнозируемой аномалии приземной температуры воздуха на январь 2020 года по разным моделям.




Погода в Темире - сегодня

Время (UTC), дата Ветер
(°,м/с) 
Видим.   Явления Облачность Т
(°С)
Тd
(°С)
f(%) Тe
(°С)
Pmin
(гПа)
dP
(гПа)
Po
(мм)
O2
(г/м3)
Тmin Tmax R s Состояние
почвы
12 22.10.21 210 (ЮЗ) 20000 м    8/0 средняя 
[Ac trans]
+14 +1.9 44 +13  1018.2  0.3  743  284           
15 22.10.21 200 (Ю) н/о    8/0 средняя, верхняя 
[Ac trans|Ci fib]
+9.6 +2 59 +9  1020  1.3  744  289    +15.5  0.0     
18 22.10.21 210 (ЮЗ) н/о    6/0 средняя, верхняя 
[Ac trans|Ci fib]
+8.6 +3 68 +7  1020.2  0.1  744  290    +15.5  0.0     
21 22.10.21 210 (ЮЗ) н/о    5/3 1000 м верхняя 
[Sc|Ci fib]
+8 +4.4 78 +6  1021.4  1.2  745  291           
00 23.10.21 180 (Ю) н/о    8/8 600 м 
[Sc]
+7.7 +5.2 84 +7  1021.4  745  291           
03 23.10.21 200 (Ю) 20000 м  гроза, пыльная буря  10/10 600 м 
[Sc]
+8.6 +6.4 86 +9  1021.5  0.2  745  290           
06 23.10.21 200 (Ю) 20000 м    9/9 600 м 
[Sc]
+11.4 +3.8 59 +10  1022.6  1.2  746  288  +6.7         
09 23.10.21 210 (ЮЗ) 20000 м    9/9 600 м 
[Sc]
+14.2 +9.1 71 +13  1022.1  -0.1  746  284           
12 23.10.21 200 (Ю) 20000 м    8/5 600 м средняя 
[Sc|Ac trans]
+15.4 +7.9 61 +15  1021.7  -0.3  746  283           
15 23.10.21 190 (Ю) н/о    9/9 600 м 
[Sc]
+12.2 +8.4 78 +12  1022.8  0.8  746  286    +16.6       
18 23.10.21 160 (Ю) н/о    ясно 
+7.4 +3.9 78 +7  1023.4  0.1  746  292    +16.6       
21 23.10.21 170 (Ю) н/о    ясно 
+3.8 +1.2 83 +5  1023.4  -0.4  746  296           
00 24.10.21 тихо ()   н/о    ясно 
+2.7 +0.3 84 +3  1022.8  -0.7  745  297           
03 24.10.21 170 (Ю) 20000 м    ясно 
+1.1 -3.8 70 +2  1021.9  -1.1  745  299           
06 24.10.21 170 (Ю) 20000 м    ясно 
+7.9 -3.8 43 +8  1021.3  0.1  745  292  +1.1         
09 24.10.21 180 (Ю) 20000 м    3/0 верхняя 
[Ci fib]
+15 -4.5 26 +15  1019  -1.6  743  284           
12 24.10.21 180 (Ю) 20000 м    3/0 верхняя 
[Ci fib]
+16.1 -5.8 22 +16  1017.6  -1.2  743  283           
15 24.10.21 190 (Ю) н/о    3/0 верхняя 
[Ci fib]
+8.2 -4 42 +8  1018.5  0.1  743  291    +17.8       
18 24.10.21 160 (Ю) н/о    5/0 верхняя 
[Ci fib]
+5.5 -4.4 49 +5  1017.9  -0.8  742  294    +17.8       
21 24.10.21 140 (ЮВ) н/о    8/0 верхняя 
[Cs]
+3.9 -5.6 50 +5  1017  -1.1  741  295           
00 25.10.21 130 (ЮВ) н/о    9/0 средняя, верхняя 
[Ac trans|Cs]
+2.7 -5.4 55 +3  1016.3  -0.8  741  296           
03 25.10.21 тихо ()   20000 м    9/0 средняя, верхняя 
[Ac trans|Cs]
+1.3 -4.6 65 +1  1015.5  -0.9  740  297           
06 25.10.21 130 (ЮВ) 20000 м    10/0 средняя 
[As trans]
+5 -3.2 55 +6  1015  -0.1  740  293  +1.3         
09 25.10.21 250 (З) 20000 м    9/0 средняя, верхняя 
[Ac trans|Ci fib]
+11.5 -4.8 32 +12  1013.3  -1  739  286           
12 25.10.21 280 (З) 20000 м    9/9 1000 м 
[Sc]
+7.9 +1.6 64 +6  1014.5  0.8  740  289           
Время (UTC), дата Ветер
(°,м/с) 
Видим.   Явления Облачность Т
(°С)
Тd
(°С)
f(%) Тe
(°С)
Pmin
(гПа)
dP
(гПа)
Po
(мм)
O2
(г/м3)
Тmin Tmax R s Состояние
почвы

Для получения пояснительной информации подведите курсор к названию столбца.

ПОГОДА в Темире - архив

Всё, что Вы хотите узнать о погоде в Темире - удобно и подробно!

Выберите нужную дату (начиная с 1 января 2019* года) и нажмите кнопку "Найти".
Будут отображены архивные сводки погоды по пункту Темир, начиная с указанной даты.


Отображать данные в формате CSV (для использования в таблицах Excel)


Внимание! Наш архив погоды предназначен исключительно для личного некоммерческого использования в познавательных целях. Если Вам необходимы официальные справки о состоянии погоды (для производственных, юридических, коммерческих и т.п. целей), обращайтесь в органы Росгидромета.

*Примечание: данная дата относится к архиву по метеостанциям СССР (Россия, СНГ, Балтия).
Архив по метеостанциям Зарубежной Европы и Азии (кроме Китая) хранится 10 дней, по другим регионам земного шара (Китай, Африка, Америка, Австралия, Океания) - 1 день.

Темир - район местоположения метеостанции


Название, широта, долгота, высота метеостанции:
Темир 49.2°ш. 57.1°д. 234 м над ур. моря [Казахстан]

Дополнительная информация

В oтличие oт бoльшинства пoгoдных сайтoв мы публикуем пoдрoбную метеoинфoрмацию в детальнoм прoфессиoнальнoм фoрмате.

Характеристики температуры и влажнoсти вoздуха измеряются на высoте 2 м в тени вдали oт зданий и деревьев.
Скoрoсть ветра измеряется на высoте 10 м (на урoвне рoста челoвека скoрoсть ветра ниже в 1.5-2 раза). Если метеoстанция нахoдится в гoрoде или в лесу, тo скoрoсть ветра занижена на 2-4 м/с пo сравнению с oткрытым местoм. Скoрoсть ветра над акватoриями крупных рек и oзёр, а также на вершинах хoлмoв на 2-5 м/с выше, чем в oбычных услoвиях.
Атмoсфернoе давление в разных тoчках местнoсти мoжет значительнo oтличаться oт давления на метеoстанции, в зависимoсти oт услoвий рельефа (при пoдъёме на 10 м давление пoнижается примернo на 1 мм рт.ст.).